Time,TemperatureF,DewpointF,PressureIn,WindDirection,WindDirectionDegrees,WindSpeedMPH,WindSpeedGustMPH,Humidity,HourlyPrecipIn,Conditions,Clouds,dailyrainin,SoftwareType,DateUTC
2013-02-12 00:07:00,49.8,41.9,28.94,NE,34,1.3,3.6,74,0.00,,,0.00,WSDL version 420,2013-02-12 06:07:00,
2013-02-12 00:18:00,49.6,41.7,28.94,NE,45,0.2,2.9,74,0.00,,,0.00,WSDL version 420,2013-02-12 06:18:00,
2013-02-12 00:28:00,49.5,41.9,28.94,NE,42,0.4,2.5,75,0.00,,,0.00,WSDL version 420,2013-02-12 06:28:00,
2013-02-12 00:38:00,49.4,42.0,28.94,NNE,20,1.0,2.0,76,0.00,,,0.00,WSDL version 420,2013-02-12 06:38:00,
2013-02-12 00:48:00,49.3,42.0,28.91,East,79,0.0,1.6,76,0.00,,,0.00,WSDL version 420,2013-02-12 06:48:00,
2013-02-12 01:01:00,49.3,42.3,28.91,NNE,23,0.0,0.9,77,0.00,,,0.00,WSDL version 420,2013-02-12 07:01:00,
2013-02-12 01:11:00,49.5,42.6,28.91,NNE,23,0.0,1.1,77,0.00,,,0.00,WSDL version 420,2013-02-12 07:11:00,
2013-02-12 01:21:00,49.5,42.6,28.91,NNE,25,0.9,1.3,78,0.00,,,0.00,WSDL version 420,2013-02-12 07:21:00,
2013-02-12 01:31:00,49.5,42.9,28.91,NNE,23,0.0,0.9,78,0.00,,,0.00,WSDL version 420,2013-02-12 07:31:00,
2013-02-12 01:36:00,49.5,42.9,28.91,NNE,25,0.0,1.3,78,0.00,,,0.00,WSDL version 420,2013-02-12 07:36:00,
2013-02-12 01:41:00,49.5,43.0,28.91,NNE,18,0.2,2.0,79,0.00,,,0.00,WSDL version 420,2013-02-12 07:41:00,
2013-02-12 01:46:00,49.5,43.2,28.91,ESE,108,0.0,2.0,79,0.00,,,0.00,WSDL version 420,2013-02-12 07:46:00,
2013-02-12 01:51:00,49.5,43.2,28.91,NNE,25,0.9,1.6,79,0.00,,,0.00,WSDL version 420,2013-02-12 07:51:00,
2013-02-12 01:56:00,49.5,43.4,28.91,North,10,0.3,1.6,80,0.00,,,0.00,WSDL version 420,2013-02-12 07:56:00,
2013-02-12 02:01:00,49.5,43.7,28.91,NNE,20,0.7,2.5,80,0.00,,,0.00,WSDL version 420,2013-02-12 08:01:00,
2013-02-12 02:06:00,49.5,43.6,28.91,ENE,68,0.0,2.5,80,0.00,,,0.00,WSDL version 420,2013-02-12 08:06:00,
2013-02-12 02:11:00,49.5,43.7,28.91,East,88,0.0,1.3,81,0.00,,,0.00,WSDL version 420,2013-02-12 08:11:00,
2013-02-12 02:16:00,49.5,43.9,28.91,NNE,25,0.0,1.6,81,0.00,,,0.00,WSDL version 420,2013-02-12 08:16:00,
2013-02-12 02:21:00,49.5,43.6,28.91,NE,37,1.2,2.0,81,0.00,,,0.00,WSDL version 420,2013-02-12 08:21:00,
2013-02-12 02:26:00,49.5,44.1,28.91,NNE,23,0.0,2.0,82,0.00,,,0.00,WSDL version 420,2013-02-12 08:26:00,
2013-02-12 02:31:00,49.5,44.0,28.88,NNE,23,0.0,1.3,81,0.00,,,0.00,WSDL version 420,2013-02-12 08:31:00,
2013-02-12 02:36:00,49.5,43.9,28.88,ENE,59,0.2,1.6,81,0.00,,,0.00,WSDL version 420,2013-02-12 08:36:00,
2013-02-12 02:41:00,49.5,43.9,28.88,NE,48,0.3,2.7,81,0.00,,,0.00,WSDL version 420,2013-02-12 08:41:00,
2013-02-12 02:46:00,49.5,43.9,28.88,NNE,23,1.0,2.7,81,0.00,,,0.00,WSDL version 420,2013-02-12 08:46:00,
2013-02-12 02:51:00,49.5,44.3,28.88,NE,45,0.0,2.0,82,0.00,,,0.00,WSDL version 420,2013-02-12 08:51:00,
2013-02-12 02:56:00,49.5,44.3,28.88,NE,39,0.2,2.0,82,0.00,,,0.00,WSDL version 420,2013-02-12 08:56:00,
2013-02-12 03:01:00,49.5,44.3,28.88,NE,48,0.6,1.6,82,0.00,,,0.00,WSDL version 420,2013-02-12 09:01:00,
2013-02-12 03:06:00,49.5,44.4,28.88,NE,51,1.0,2.7,82,0.00,,,0.00,WSDL version 420,2013-02-12 09:06:00,
2013-02-12 03:11:00,49.5,44.3,28.88,NE,45,1.1,2.7,82,0.00,,,0.00,WSDL version 420,2013-02-12 09:11:00,
2013-02-12 03:16:00,49.5,44.3,28.88,East,93,0.8,2.2,83,0.00,,,0.00,WSDL version 420,2013-02-12 09:16:00,
2013-02-12 03:21:00,49.5,44.6,28.88,NNE,23,0.8,2.2,82,0.00,,,0.00,WSDL version 420,2013-02-12 09:21:00,
2013-02-12 03:26:00,49.5,44.3,28.88,ENE,65,0.3,3.4,82,0.05,,,0.05,WSDL version 420,2013-02-12 09:26:00,
2013-02-12 03:31:00,49.5,44.6,28.88,NE,48,1.0,3.4,83,0.05,,,0.05,WSDL version 420,2013-02-12 09:31:00,
2013-02-12 03:36:00,49.5,44.6,28.88,ENE,68,0.4,2.2,83,0.05,,,0.05,WSDL version 420,2013-02-12 09:36:00,
2013-02-12 03:41:00,49.5,45.0,28.88,ENE,63,0.7,2.0,84,0.05,,,0.05,WSDL version 420,2013-02-12 09:41:00,
2013-02-12 03:46:00,49.5,45.0,28.85,NE,39,1.1,2.0,84,0.05,,,0.05,WSDL version 420,2013-02-12 09:46:00,
2013-02-12 03:51:00,49.5,44.6,28.85,NNE,18,1.0,2.7,83,0.05,,,0.05,WSDL version 420,2013-02-12 09:51:00,
2013-02-12 03:56:00,49.5,44.8,28.85,NNE,23,0.0,2.7,84,0.05,,,0.05,WSDL version 420,2013-02-12 09:56:00,
2013-02-12 04:01:00,49.5,45.0,28.85,East,85,0.3,1.6,84,0.05,,,0.05,WSDL version 420,2013-02-12 10:01:00,
2013-02-12 04:06:00,49.5,45.0,28.85,East,80,0.4,2.0,84,0.05,,,0.05,WSDL version 420,2013-02-12 10:06:00,
2013-02-12 04:11:00,49.5,44.6,28.85,ENE,73,0.5,2.0,83,0.05,,,0.05,WSDL version 420,2013-02-12 10:11:00,
2013-02-12 04:16:00,49.5,44.7,28.85,ENE,60,0.6,1.6,84,0.05,,,0.05,WSDL version 420,2013-02-12 10:16:00,
2013-02-12 04:21:00,49.5,44.9,28.85,NNE,23,0.9,2.0,84,0.05,,,0.05,WSDL version 420,2013-02-12 10:21:00,
2013-02-12 04:26:00,49.5,44.8,28.85,ENE,70,0.0,2.0,84,0.00,,,0.05,WSDL version 420,2013-02-12 10:26:00,
2013-02-12 04:31:00,49.5,45.0,28.85,ENE,59,0.2,1.6,84,0.00,,,0.05,WSDL version 420,2013-02-12 10:31:00,
2013-02-12 04:36:00,49.5,45.0,28.85,NE,53,1.0,1.6,84,0.00,,,0.05,WSDL version 420,2013-02-12 10:36:00,
2013-02-12 04:41:00,49.5,45.0,28.85,NE,53,1.2,2.5,84,0.00,,,0.05,WSDL version 420,2013-02-12 10:41:00,
2013-02-12 04:46:00,49.5,45.0,28.82,NNE,33,1.3,2.5,84,0.00,,,0.05,WSDL version 420,2013-02-12 10:46:00,
2013-02-12 04:51:00,49.5,45.2,28.82,NE,55,0.8,2.5,86,0.00,,,0.05,WSDL version 420,2013-02-12 10:51:00,
2013-02-12 04:56:00,49.5,45.3,28.82,SSE,158,0.0,2.5,86,0.00,,,0.05,WSDL version 420,2013-02-12 10:56:00,
2013-02-12 05:01:00,49.5,45.3,28.85,NE,38,0.0,1.3,86,0.00,,,0.05,WSDL version 420,2013-02-12 11:01:00,
2013-02-12 05:22:00,49.5,45.7,28.85,NE,43,0.5,2.0,87,0.00,,,0.05,WSDL version 420,2013-02-12 11:22:00,
2013-02-12 05:27:00,49.6,45.8,28.85,NE,45,0.0,1.6,86,0.00,,,0.05,WSDL version 420,2013-02-12 11:27:00,
2013-02-12 05:37:00,49.8,45.9,28.82,ENE,63,0.4,1.3,87,0.00,,,0.05,WSDL version 420,2013-02-12 11:37:00,
2013-02-12 05:48:00,49.6,45.8,28.82,NE,34,0.4,1.3,87,0.00,,,0.05,WSDL version 420,2013-02-12 11:48:00,
2013-02-12 06:00:00,49.8,45.7,28.82,NNE,23,0.0,2.0,86,0.00,,,0.05,WSDL version 420,2013-02-12 12:00:00,
2013-02-12 06:10:00,49.8,45.6,28.82,ENE,60,1.3,2.5,86,0.00,,,0.05,WSDL version 420,2013-02-12 12:10:00,
2013-02-12 06:20:00,49.8,45.7,28.82,NNE,23,0.0,1.3,86,0.00,,,0.05,WSDL version 420,2013-02-12 12:20:00,
2013-02-12 06:31:00,50.0,46.0,28.82,North,11,0.0,0.0,86,0.00,,,0.05,WSDL version 420,2013-02-12 12:31:00,
2013-02-12 06:41:00,50.0,46.2,28.82,NNW,338,0.0,0.0,87,0.00,,,0.05,WSDL version 420,2013-02-12 12:41:00,
2013-02-12 06:51:00,50.2,46.2,28.82,NNW,338,0.0,0.0,86,0.00,,,0.05,WSDL version 420,2013-02-12 12:51:00,
2013-02-12 06:56:00,50.2,46.1,28.82,NNW,338,0.0,0.0,86,0.00,,,0.05,WSDL version 420,2013-02-12 12:56:00,
2013-02-12 07:01:00,50.3,46.4,28.82,NNW,338,0.0,0.0,86,0.00,,,0.05,WSDL version 420,2013-02-12 13:01:00,
2013-02-12 07:06:00,50.4,46.5,28.82,NNW,338,0.0,0.0,87,0.00,,,0.05,WSDL version 420,2013-02-12 13:06:00,
2013-02-12 07:16:00,50.4,46.5,28.82,NNW,338,0.0,0.0,87,0.00,,,0.05,WSDL version 420,2013-02-12 13:16:00,
2013-02-12 07:21:00,50.4,46.6,28.82,NNW,338,0.0,0.0,87,0.00,,,0.05,WSDL version 420,2013-02-12 13:21:00,
2013-02-12 07:26:00,50.5,46.4,28.82,NNW,338,0.0,0.0,86,0.00,,,0.05,WSDL version 420,2013-02-12 13:26:00,
2013-02-12 07:31:00,50.5,46.4,28.85,NNW,338,0.9,1.3,86,0.00,,,0.05,WSDL version 420,2013-02-12 13:31:00,
2013-02-12 07:36:00,50.5,46.4,28.85,NW,315,0.6,2.5,86,0.00,,,0.05,WSDL version 420,2013-02-12 13:36:00,
2013-02-12 07:41:00,50.5,46.4,28.85,NW,315,0.1,2.5,86,0.00,,,0.05,WSDL version 420,2013-02-12 13:41:00,
2013-02-12 07:46:00,50.5,46.3,28.85,NW,315,0.0,2.0,86,0.00,,,0.05,WSDL version 420,2013-02-12 13:46:00,
2013-02-12 07:51:00,50.5,46.4,28.85,WSW,248,0.0,2.0,86,0.00,,,0.05,WSDL version 420,2013-02-12 13:51:00,
2013-02-12 08:01:00,50.4,46.4,28.85,WSW,248,0.0,0.0,86,0.00,,,0.05,WSDL version 420,2013-02-12 14:01:00,
2013-02-12 08:06:00,50.4,46.2,28.85,WSW,248,0.0,0.9,86,0.00,,,0.05,WSDL version 420,2013-02-12 14:06:00,
2013-02-12 08:11:00,50.5,46.3,28.85,WSW,248,0.0,0.9,86,0.00,,,0.05,WSDL version 420,2013-02-12 14:11:00,
2013-02-12 08:16:00,50.5,46.5,28.85,WNW,293,0.0,0.0,87,0.00,,,0.05,WSDL version 420,2013-02-12 14:16:00,
2013-02-12 08:21:00,50.5,46.7,28.85,WNW,293,0.0,0.0,87,0.00,,,0.05,WSDL version 420,2013-02-12 14:21:00,
2013-02-12 08:26:00,50.6,46.6,28.85,WNW,285,0.0,1.1,86,0.00,,,0.05,WSDL version 420,2013-02-12 14:26:00,
2013-02-12 08:31:00,50.7,46.6,28.85,WSW,248,0.0,1.3,86,0.00,,,0.05,WSDL version 420,2013-02-12 14:31:00,
2013-02-12 08:36:00,50.8,46.9,28.85,WSW,253,0.6,1.6,87,0.00,,,0.05,WSDL version 420,2013-02-12 14:36:00,
2013-02-12 08:41:00,50.9,47.1,28.85,West,268,0.1,1.6,87,0.00,,,0.05,WSDL version 420,2013-02-12 14:41:00,
2013-02-12 08:46:00,51.0,47.1,28.85,West,273,0.7,2.0,87,0.00,,,0.05,WSDL version 420,2013-02-12 14:46:00,
2013-02-12 08:51:00,51.1,47.2,28.85,WNW,293,0.0,2.0,87,0.00,,,0.05,WSDL version 420,2013-02-12 14:51:00,
2013-02-12 08:56:00,51.1,47.4,28.85,WNW,287,0.3,2.7,88,0.00,,,0.05,WSDL version 420,2013-02-12 14:56:00,
2013-02-12 09:01:00,51.3,47.8,28.85,WNW,298,1.0,2.7,88,0.00,,,0.05,WSDL version 420,2013-02-12 15:01:00,
2013-02-12 09:06:00,51.4,47.9,28.85,NW,308,0.7,2.2,88,0.00,,,0.05,WSDL version 420,2013-02-12 15:06:00,
2013-02-12 09:11:00,51.4,47.9,28.85,NW,315,1.0,2.2,88,0.00,,,0.05,WSDL version 420,2013-02-12 15:11:00,
2013-02-12 09:16:00,51.4,47.9,28.85,NW,308,1.5,3.1,88,0.00,,,0.05,WSDL version 420,2013-02-12 15:16:00,
2013-02-12 09:21:00,51.4,47.9,28.85,NW,318,1.2,3.1,88,0.00,,,0.05,WSDL version 420,2013-02-12 15:21:00,
2013-02-12 09:26:00,51.6,48.3,28.85,WNW,283,1.0,2.7,89,0.00,,,0.05,WSDL version 420,2013-02-12 15:26:00,
2013-02-12 09:31:00,51.7,48.4,28.85,West,270,0.5,2.2,89,0.00,,,0.05,WSDL version 420,2013-02-12 15:31:00,
2013-02-12 09:36:00,52.1,48.9,28.85,SW,225,0.0,2.0,89,0.00,,,0.05,WSDL version 420,2013-02-12 15:36:00,
2013-02-12 09:41:00,52.4,49.3,28.85,WSW,248,0.0,1.3,89,0.00,,,0.05,WSDL version 420,2013-02-12 15:41:00,
2013-02-12 09:46:00,52.8,49.5,28.88,West,270,0.9,2.5,88,0.00,,,0.05,WSDL version 420,2013-02-12 15:46:00,
2013-02-12 09:51:00,53.1,49.9,28.88,WNW,283,1.1,2.5,89,0.00,,,0.05,WSDL version 420,2013-02-12 15:51:00,
2013-02-12 09:56:00,53.2,49.7,28.88,NW,312,1.6,2.9,88,0.00,,,0.05,WSDL version 420,2013-02-12 15:56:00,
2013-02-12 10:01:00,53.2,49.6,28.88,WNW,290,1.6,2.9,88,0.00,,,0.05,WSDL version 420,2013-02-12 16:01:00,
2013-02-12 10:06:00,53.1,49.8,28.88,WNW,298,1.5,3.1,89,0.00,,,0.05,WSDL version 420,2013-02-12 16:06:00,
2013-02-12 10:11:00,53.2,50.0,28.88,WNW,290,1.4,3.1,89,0.00,,,0.05,WSDL version 420,2013-02-12 16:11:00,
2013-02-12 10:16:00,53.3,50.2,28.88,NW,315,0.6,2.7,89,0.00,,,0.05,WSDL version 420,2013-02-12 16:16:00,
2013-02-12 10:21:00,53.8,50.5,28.88,NW,315,1.6,2.7,88,0.00,,,0.05,WSDL version 420,2013-02-12 16:21:00,
2013-02-12 10:26:00,54.3,51.0,28.88,NW,315,1.2,2.7,88,0.00,,,0.05,WSDL version 420,2013-02-12 16:26:00,
2013-02-12 10:31:00,54.8,51.2,28.88,NW,323,1.2,2.9,88,0.00,,,0.05,WSDL version 420,2013-02-12 16:31:00,
2013-02-12 10:41:00,55.6,52.0,28.88,WNW,295,1.2,3.1,88,0.00,,,0.05,WSDL version 420,2013-02-12 16:41:00,
2013-02-12 10:46:00,56.0,52.4,28.88,NW,325,1.4,2.9,88,0.00,,,0.05,WSDL version 420,2013-02-12 16:46:00,
2013-02-12 10:51:00,56.4,52.8,28.88,West,262,1.2,2.9,88,0.00,,,0.05,WSDL version 420,2013-02-12 16:51:00,
2013-02-12 10:56:00,56.6,52.8,28.88,NW,305,1.9,3.1,87,0.00,,,0.05,WSDL version 420,2013-02-12 16:56:00,
2013-02-12 11:01:00,56.8,52.9,28.88,WNW,284,1.7,3.6,86,0.00,,,0.05,WSDL version 420,2013-02-12 17:01:00,
2013-02-12 11:06:00,57.6,53.2,28.88,WNW,303,2.5,4.7,84,0.00,,,0.05,WSDL version 420,2013-02-12 17:06:00,
2013-02-12 11:11:00,58.3,53.4,28.88,West,281,2.3,4.7,83,0.00,,,0.05,WSDL version 420,2013-02-12 17:11:00,
2013-02-12 11:16:00,58.7,53.3,28.88,WNW,290,2.1,4.0,82,0.00,,,0.05,WSDL version 420,2013-02-12 17:16:00,
2013-02-12 11:21:00,58.5,52.7,28.88,West,280,2.2,3.8,81,0.00,,,0.05,WSDL version 420,2013-02-12 17:21:00,
2013-02-12 11:26:00,58.5,52.3,28.88,WNW,301,1.7,4.0,79,0.00,,,0.05,WSDL version 420,2013-02-12 17:26:00,
2013-02-12 11:31:00,58.6,51.9,28.88,WNW,303,2.2,4.0,78,0.00,,,0.05,WSDL version 420,2013-02-12 17:31:00,
2013-02-12 11:36:00,59.4,52.4,28.88,South,177,2.1,3.6,77,0.00,,,0.05,WSDL version 420,2013-02-12 17:36:00,
2013-02-12 11:41:00,61.0,52.5,28.88,WNW,303,2.6,4.3,72,0.00,,,0.05,WSDL version 420,2013-02-12 17:41:00,
2013-02-12 11:46:00,61.1,51.6,28.88,NW,309,3.2,4.7,70,0.00,,,0.05,WSDL version 420,2013-02-12 17:46:00,
2013-02-12 11:51:00,61.1,51.0,28.88,NW,304,2.9,4.9,69,0.00,,,0.05,WSDL version 420,2013-02-12 17:51:00,
2013-02-12 11:56:00,61.1,50.7,28.88,NW,308,3.1,5.6,68,0.00,,,0.05,WSDL version 420,2013-02-12 17:56:00,
2013-02-12 12:01:00,61.1,49.9,28.85,NW,318,3.5,5.6,65,0.00,,,0.05,WSDL version 420,2013-02-12 18:01:00,
2013-02-12 12:06:00,62.1,49.6,28.85,NNW,343,4.0,5.8,62,0.00,,,0.05,WSDL version 420,2013-02-12 18:06:00,
2013-02-12 12:11:00,62.4,48.6,28.85,NW,315,3.9,5.8,60,0.00,,,0.05,WSDL version 420,2013-02-12 18:11:00,
2013-02-12 12:16:00,62.7,48.0,28.85,NW,320,4.1,6.7,58,0.00,,,0.05,WSDL version 420,2013-02-12 18:16:00,
2013-02-12 12:26:00,63.8,48.5,28.85,NW,323,2.9,4.7,57,0.00,,,0.05,WSDL version 420,2013-02-12 18:26:00,
2013-02-12 12:31:00,63.5,48.2,28.85,WNW,295,2.4,5.6,58,0.00,,,0.05,WSDL version 420,2013-02-12 18:31:00,
2013-02-12 12:36:00,64.1,48.6,28.85,West,270,2.6,5.6,57,0.00,,,0.05,WSDL version 420,2013-02-12 18:36:00,
2013-02-12 12:41:00,64.6,48.4,28.85,NW,315,2.6,5.4,55,0.00,,,0.05,WSDL version 420,2013-02-12 18:41:00,
2013-02-12 12:46:00,64.4,47.9,28.85,NW,323,2.5,6.5,55,0.00,,,0.05,WSDL version 420,2013-02-12 18:46:00,
2013-02-12 12:51:00,64.6,47.9,28.85,NW,315,3.3,6.5,53,0.00,,,0.05,WSDL version 420,2013-02-12 18:51:00,
2013-02-12 12:56:00,64.2,47.0,28.85,WNW,290,3.5,6.0,54,0.00,,,0.05,WSDL version 420,2013-02-12 18:56:00,
2013-02-12 13:11:00,63.3,45.8,28.85,NW,323,3.8,6.0,53,0.00,,,0.05,WSDL version 420,2013-02-12 19:11:00,
2013-02-12 13:21:00,64.0,45.9,28.85,NW,318,3.4,6.5,51,0.00,,,0.05,WSDL version 420,2013-02-12 19:21:00,
2013-02-12 13:31:00,65.1,46.2,28.82,WNW,290,2.5,4.0,51,0.00,,,0.05,WSDL version 420,2013-02-12 19:31:00,
2013-02-12 13:36:00,65.3,45.7,28.82,NW,326,4.1,5.6,48,0.00,,,0.05,WSDL version 420,2013-02-12 19:36:00,
2013-02-12 13:41:00,64.8,44.5,28.82,NW,313,4.1,6.3,47,0.00,,,0.05,WSDL version 420,2013-02-12 19:41:00,
2013-02-12 13:46:00,65.1,44.7,28.82,NNW,335,2.9,6.3,48,0.00,,,0.05,WSDL version 420,2013-02-12 19:46:00,
2013-02-12 13:51:00,65.9,45.6,28.82,NNW,332,2.8,5.6,47,0.00,,,0.05,WSDL version 420,2013-02-12 19:51:00,
2013-02-12 13:56:00,65.8,45.6,28.82,NNW,348,2.1,4.0,48,0.00,,,0.05,WSDL version 420,2013-02-12 19:56:00,
2013-02-12 14:01:00,65.8,45.6,28.82,WNW,293,2.7,4.3,48,0.00,,,0.05,WSDL version 420,2013-02-12 20:01:00,
2013-02-12 14:06:00,66.3,45.3,28.82,NNW,338,2.3,4.3,46,0.00,,,0.05,WSDL version 420,2013-02-12 20:06:00,
2013-02-12 14:11:00,66.5,45.1,28.82,NW,321,1.7,3.1,46,0.00,,,0.05,WSDL version 420,2013-02-12 20:11:00,
2013-02-12 14:16:00,66.9,45.1,28.79,NW,318,3.9,6.0,43,0.00,,,0.05,WSDL version 420,2013-02-12 20:16:00,
2013-02-12 14:21:00,67.1,44.2,28.79,NW,325,2.2,6.0,44,0.00,,,0.05,WSDL version 420,2013-02-12 20:21:00,
2013-02-12 14:26:00,67.5,44.6,28.79,WNW,298,2.7,5.6,43,0.00,,,0.05,WSDL version 420,2013-02-12 20:26:00,
2013-02-12 14:31:00,67.9,44.3,28.79,WNW,293,3.4,6.3,42,0.00,,,0.05,WSDL version 420,2013-02-12 20:31:00,
2013-02-12 14:36:00,67.6,43.8,28.79,NW,323,2.1,6.3,43,0.00,,,0.05,WSDL version 420,2013-02-12 20:36:00,
2013-02-12 14:41:00,68.0,44.3,28.79,WNW,283,3.3,5.8,42,0.00,,,0.05,WSDL version 420,2013-02-12 20:41:00,
2013-02-12 14:46:00,68.2,43.7,28.79,NNW,329,2.3,5.8,42,0.00,,,0.05,WSDL version 420,2013-02-12 20:46:00,
2013-02-12 14:51:00,68.7,43.8,28.79,NW,310,2.9,5.4,40,0.00,,,0.05,WSDL version 420,2013-02-12 20:51:00,
2013-02-12 14:56:00,68.8,43.0,28.79,NW,325,4.0,6.0,38,0.00,,,0.05,WSDL version 420,2013-02-12 20:56:00,
2013-02-12 15:01:00,68.4,42.3,28.79,NW,309,1.5,6.0,39,0.00,,,0.05,WSDL version 420,2013-02-12 21:01:00,
2013-02-12 15:06:00,68.0,41.9,28.79,NW,323,3.4,4.3,38,0.00,,,0.05,WSDL version 420,2013-02-12 21:06:00,
2013-02-12 15:11:00,67.3,41.0,28.79,West,280,2.6,5.6,39,0.00,,,0.05,WSDL version 420,2013-02-12 21:11:00,
2013-02-12 15:16:00,67.5,41.9,28.79,NW,313,1.2,5.6,40,0.00,,,0.05,WSDL version 420,2013-02-12 21:16:00,
2013-02-12 15:21:00,67.2,42.0,28.79,NNW,329,1.8,2.9,40,0.00,,,0.05,WSDL version 420,2013-02-12 21:21:00,
2013-02-12 15:26:00,67.0,41.9,28.79,NNW,333,0.8,2.9,40,0.00,,,0.05,WSDL version 420,2013-02-12 21:26:00,
2013-02-12 15:31:00,67.6,42.4,28.79,West,268,1.3,3.4,40,0.00,,,0.05,WSDL version 420,2013-02-12 21:31:00,
2013-02-12 15:36:00,68.0,42.5,28.79,NW,321,2.2,3.4,40,0.00,,,0.05,WSDL version 420,2013-02-12 21:36:00,
2013-02-12 15:41:00,67.6,41.9,28.79,WNW,293,1.9,3.4,39,0.00,,,0.05,WSDL version 420,2013-02-12 21:41:00,
2013-02-12 15:46:00,68.1,41.1,28.79,WNW,290,3.2,6.9,36,0.00,,,0.05,WSDL version 420,2013-02-12 21:46:00,
2013-02-12 15:51:00,68.8,40.0,28.79,WNW,285,3.2,6.9,35,0.00,,,0.05,WSDL version 420,2013-02-12 21:51:00,
2013-02-12 15:56:00,69.4,40.0,28.79,West,276,2.5,6.5,34,0.00,,,0.05,WSDL version 420,2013-02-12 21:56:00,
2013-02-12 16:01:00,69.4,39.9,28.76,WNW,283,2.1,6.5,34,0.00,,,0.05,WSDL version 420,2013-02-12 22:01:00,
2013-02-12 16:06:00,70.2,40.3,28.76,West,273,2.4,5.4,33,0.00,,,0.05,WSDL version 420,2013-02-12 22:06:00,
2013-02-12 16:11:00,70.7,40.1,28.76,West,267,2.9,5.4,32,0.00,,,0.05,WSDL version 420,2013-02-12 22:11:00,
2013-02-12 16:16:00,70.6,39.6,28.76,NW,308,3.5,5.4,32,0.00,,,0.05,WSDL version 420,2013-02-12 22:16:00,
2013-02-12 16:21:00,70.8,39.2,28.76,WNW,293,3.1,6.9,31,0.00,,,0.05,WSDL version 420,2013-02-12 22:21:00,
2013-02-12 16:26:00,71.2,39.0,28.76,SW,228,2.5,6.9,31,0.00,,,0.05,WSDL version 420,2013-02-12 22:26:00,
2013-02-12 16:31:00,71.7,39.3,28.79,NW,307,3.3,6.0,30,0.00,,,0.05,WSDL version 420,2013-02-12 22:31:00,
2013-02-12 16:36:00,71.6,37.0,28.79,WNW,303,3.9,5.6,28,0.00,,,0.05,WSDL version 420,2013-02-12 22:36:00,
2013-02-12 16:41:00,71.7,36.4,28.79,NNW,333,3.1,5.6,28,0.00,,,0.05,WSDL version 420,2013-02-12 22:41:00,
2013-02-12 16:46:00,71.5,35.8,28.79,NW,304,3.6,5.6,27,0.00,,,0.05,WSDL version 420,2013-02-12 22:46:00,
2013-02-12 16:51:00,71.2,34.2,28.79,WNW,288,4.3,10.3,25,0.00,,,0.05,WSDL version 420,2013-02-12 22:51:00,
2013-02-12 16:56:00,70.6,33.3,28.79,West,278,3.6,10.3,25,0.00,,,0.05,WSDL version 420,2013-02-12 22:56:00,
2013-02-12 17:01:00,70.2,32.4,28.79,WNW,283,4.1,8.1,24,0.00,,,0.05,WSDL version 420,2013-02-12 23:01:00,
2013-02-12 17:06:00,69.5,31.8,28.79,West,281,2.9,6.3,25,0.00,,,0.05,WSDL version 420,2013-02-12 23:06:00,
2013-02-12 17:11:00,69.1,31.4,28.79,WNW,300,4.1,6.3,24,0.00,,,0.05,WSDL version 420,2013-02-12 23:11:00,
2013-02-12 17:16:00,68.4,30.9,28.79,West,276,1.8,6.3,25,0.00,,,0.05,WSDL version 420,2013-02-12 23:16:00,
2013-02-12 17:21:00,67.9,30.8,28.79,NW,312,3.0,5.4,25,0.00,,,0.05,WSDL version 420,2013-02-12 23:21:00,
2013-02-12 17:26:00,67.7,30.0,28.79,NW,313,4.0,5.8,24,0.00,,,0.05,WSDL version 420,2013-02-12 23:26:00,
2013-02-12 17:31:00,67.3,30.1,28.79,West,281,2.9,5.8,25,0.00,,,0.05,WSDL version 420,2013-02-12 23:31:00,
2013-02-12 17:36:00,67.1,30.1,28.79,WSW,250,2.7,4.0,25,0.00,,,0.05,WSDL version 420,2013-02-12 23:36:00,
2013-02-12 17:41:00,66.9,29.1,28.79,West,276,3.0,7.8,24,0.00,,,0.05,WSDL version 420,2013-02-12 23:41:00,
2013-02-12 17:46:00,66.5,28.6,28.82,West,268,3.0,7.8,24,0.00,,,0.05,WSDL version 420,2013-02-12 23:46:00,
2013-02-12 17:51:00,65.9,29.0,28.82,West,265,2.7,6.5,25,0.00,,,0.05,WSDL version 420,2013-02-12 23:51:00,
2013-02-12 17:56:00,65.6,28.7,28.82,WSW,256,2.3,5.8,24,0.00,,,0.05,WSDL version 420,2013-02-12 23:56:00,
2013-02-12 18:01:00,65.2,28.0,28.82,WSW,250,2.3,5.8,25,0.00,,,0.05,WSDL version 420,2013-02-13 00:01:00,
2013-02-12 18:06:00,64.7,27.9,28.82,West,276,2.3,3.8,25,0.00,,,0.05,WSDL version 420,2013-02-13 00:06:00,
2013-02-12 18:11:00,64.3,27.7,28.82,WNW,298,1.8,4.0,25,0.00,,,0.05,WSDL version 420,2013-02-13 00:11:00,
2013-02-12 18:16:00,63.7,27.4,28.85,WNW,301,1.8,4.0,26,0.00,,,0.05,WSDL version 420,2013-02-13 00:16:00,
2013-02-12 18:21:00,63.1,27.7,28.85,NW,308,1.4,3.6,26,0.00,,,0.05,WSDL version 420,2013-02-13 00:21:00,
2013-02-12 18:26:00,62.8,27.4,28.85,NW,307,1.6,3.6,26,0.00,,,0.05,WSDL version 420,2013-02-13 00:26:00,
2013-02-12 18:31:00,62.4,27.1,28.82,WNW,298,1.5,2.9,26,0.00,,,0.05,WSDL version 420,2013-02-13 00:31:00,
2013-02-12 18:36:00,61.8,26.6,28.82,WNW,293,1.3,2.9,26,0.00,,,0.05,WSDL version 420,2013-02-13 00:36:00,
2013-02-12 18:41:00,61.6,27.1,28.82,NW,315,2.1,3.1,26,0.00,,,0.05,WSDL version 420,2013-02-13 00:41:00,
2013-02-12 18:46:00,61.5,26.3,28.85,NW,313,2.8,4.3,26,0.00,,,0.05,WSDL version 420,2013-02-13 00:46:00,
2013-02-12 18:51:00,61.3,26.2,28.85,NW,312,2.6,4.3,26,0.00,,,0.05,WSDL version 420,2013-02-13 00:51:00,
2013-02-12 18:56:00,61.2,26.0,28.85,NW,313,2.6,4.3,26,0.00,,,0.05,WSDL version 420,2013-02-13 00:56:00,
2013-02-12 19:01:00,60.9,25.8,28.85,NW,313,2.3,4.3,26,0.00,,,0.05,WSDL version 420,2013-02-13 01:01:00,
2013-02-12 19:06:00,60.7,25.6,28.85,NW,321,2.6,3.6,26,0.00,,,0.05,WSDL version 420,2013-02-13 01:06:00,
2013-02-12 19:11:00,60.6,25.5,28.85,NNW,329,2.1,3.4,26,0.00,,,0.05,WSDL version 420,2013-02-13 01:11:00,
2013-02-12 19:16:00,60.4,25.4,28.88,North,354,2.0,3.1,26,0.00,,,0.05,WSDL version 420,2013-02-13 01:16:00,
2013-02-12 19:21:00,60.0,26.3,28.88,NNW,340,2.2,3.1,28,0.00,,,0.05,WSDL version 420,2013-02-13 01:21:00,
2013-02-12 19:26:00,59.5,29.5,28.88,NNW,332,1.7,3.1,34,0.00,,,0.05,WSDL version 420,2013-02-13 01:26:00,
2013-02-12 19:31:00,59.2,32.5,28.88,NNE,13,2.0,4.0,38,0.00,,,0.05,WSDL version 420,2013-02-13 01:31:00,
2013-02-12 19:36:00,58.8,33.6,28.88,North,353,1.2,4.0,39,0.00,,,0.05,WSDL version 420,2013-02-13 01:36:00,
2013-02-12 19:41:00,58.4,34.3,28.88,North,354,1.1,2.0,41,0.00,,,0.05,WSDL version 420,2013-02-13 01:41:00,
2013-02-12 19:46:00,58.0,35.3,28.91,North,350,0.6,2.2,43,0.00,,,0.05,WSDL version 420,2013-02-13 01:46:00,
2013-02-12 19:51:00,57.8,35.9,28.91,NNW,345,1.2,2.2,45,0.00,,,0.05,WSDL version 420,2013-02-13 01:51:00,
2013-02-12 19:56:00,57.5,36.3,28.91,NNW,338,1.2,2.5,45,0.00,,,0.05,WSDL version 420,2013-02-13 01:56:00,
2013-02-12 20:01:00,57.2,36.3,28.91,NNW,338,1.2,2.5,46,0.00,,,0.05,WSDL version 420,2013-02-13 02:01:00,
2013-02-12 20:06:00,56.9,36.9,28.91,NNW,343,1.0,2.2,47,0.00,,,0.05,WSDL version 420,2013-02-13 02:06:00,
2013-02-12 20:11:00,56.7,36.7,28.91,NNW,338,1.3,2.2,47,0.00,,,0.05,WSDL version 420,2013-02-13 02:11:00,
2013-02-12 20:16:00,56.4,37.0,28.91,NNW,340,1.6,2.7,48,0.00,,,0.05,WSDL version 420,2013-02-13 02:16:00,
2013-02-12 20:21:00,56.3,37.4,28.91,NNW,348,1.5,2.7,49,0.00,,,0.05,WSDL version 420,2013-02-13 02:21:00,
2013-02-12 20:26:00,56.0,37.6,28.91,North,350,1.4,3.1,50,0.00,,,0.05,WSDL version 420,2013-02-13 02:26:00,
2013-02-12 20:31:00,55.9,37.8,28.91,NNW,340,2.6,3.4,51,0.00,,,0.05,WSDL version 420,2013-02-13 02:31:00,
2013-02-12 20:36:00,55.8,37.7,28.91,NNW,338,2.8,3.4,50,0.00,,,0.05,WSDL version 420,2013-02-13 02:36:00,
2013-02-12 20:41:00,55.7,37.7,28.91,NNW,343,2.9,3.4,50,0.00,,,0.05,WSDL version 420,2013-02-13 02:41:00,
2013-02-12 20:46:00,55.5,37.2,28.91,NNW,338,3.2,4.7,50,0.00,,,0.05,WSDL version 420,2013-02-13 02:46:00,
2013-02-12 20:51:00,55.3,37.3,28.91,NNW,338,2.2,4.7,51,0.00,,,0.05,WSDL version 420,2013-02-13 02:51:00,
2013-02-12 20:56:00,55.0,37.2,28.91,NNW,345,2.7,4.0,51,0.00,,,0.05,WSDL version 420,2013-02-13 02:56:00,
2013-02-12 21:01:00,54.8,37.0,28.91,NNW,334,2.6,3.8,51,0.00,,,0.05,WSDL version 420,2013-02-13 03:01:00,
2013-02-12 21:06:00,54.5,36.8,28.91,NNW,335,2.6,4.3,51,0.00,,,0.05,WSDL version 420,2013-02-13 03:06:00,
2013-02-12 21:11:00,54.4,36.9,28.91,NNW,340,2.8,4.7,52,0.00,,,0.05,WSDL version 420,2013-02-13 03:11:00,
2013-02-12 21:16:00,54.1,36.8,28.94,NNW,338,3.3,4.9,51,0.00,,,0.05,WSDL version 420,2013-02-13 03:16:00,
2013-02-12 21:21:00,53.9,36.2,28.94,NNW,333,3.2,4.9,51,0.00,,,0.05,WSDL version 420,2013-02-13 03:21:00,
2013-02-12 21:26:00,53.6,36.4,28.94,NNW,338,2.7,4.9,52,0.00,,,0.05,WSDL version 420,2013-02-13 03:26:00,
2013-02-12 21:31:00,53.3,36.1,28.94,NNW,330,2.7,4.3,52,0.00,,,0.05,WSDL version 420,2013-02-13 03:31:00,
2013-02-12 21:36:00,53.1,36.0,28.94,NNW,333,3.6,5.6,52,0.00,,,0.05,WSDL version 420,2013-02-13 03:36:00,
2013-02-12 21:41:00,52.8,35.7,28.94,NNW,335,3.1,5.6,52,0.00,,,0.05,WSDL version 420,2013-02-13 03:41:00,
2013-02-12 21:46:00,52.5,35.8,28.94,NNW,346,3.8,5.8,53,0.00,,,0.05,WSDL version 420,2013-02-13 03:46:00,
2013-02-12 21:51:00,52.3,35.6,28.94,NNW,335,3.1,5.8,53,0.00,,,0.05,WSDL version 420,2013-02-13 03:51:00,
2013-02-12 21:56:00,51.9,35.7,28.94,NNW,340,3.9,5.6,54,0.00,,,0.05,WSDL version 420,2013-02-13 03:56:00,
2013-02-12 22:01:00,51.7,35.6,28.97,NNW,338,3.2,5.6,54,0.00,,,0.05,WSDL version 420,2013-02-13 04:01:00,
2013-02-12 22:06:00,51.4,35.4,28.97,NNW,338,2.7,5.4,55,0.00,,,0.05,WSDL version 420,2013-02-13 04:06:00,
2013-02-12 22:11:00,51.2,35.6,28.97,NNW,335,3.0,4.3,55,0.00,,,0.05,WSDL version 420,2013-02-13 04:11:00,
2013-02-12 22:16:00,50.8,35.3,28.97,NNW,338,2.2,4.3,55,0.00,,,0.05,WSDL version 420,2013-02-13 04:16:00,
2013-02-12 22:21:00,50.5,35.0,28.97,NW,318,2.5,3.6,55,0.00,,,0.05,WSDL version 420,2013-02-13 04:21:00,
2013-02-12 22:26:00,50.4,34.8,28.97,NW,313,2.2,3.4,55,0.00,,,0.05,WSDL version 420,2013-02-13 04:26:00,
2013-02-12 22:31:00,50.2,34.7,28.97,NW,321,2.7,3.8,55,0.00,,,0.05,WSDL version 420,2013-02-13 04:31:00,
2013-02-12 22:36:00,50.2,35.1,28.97,NNW,333,2.9,5.4,56,0.00,,,0.05,WSDL version 420,2013-02-13 04:36:00,
2013-02-12 22:41:00,50.1,35.2,28.97,NNW,328,4.4,6.0,56,0.00,,,0.05,WSDL version 420,2013-02-13 04:41:00,
2013-02-12 22:46:00,49.8,35.1,28.97,NNW,330,4.3,6.3,56,0.00,,,0.05,WSDL version 420,2013-02-13 04:46:00,
2013-02-12 22:51:00,49.5,34.3,28.97,NNW,332,4.5,6.5,55,0.00,,,0.05,WSDL version 420,2013-02-13 04:51:00,
2013-02-12 22:56:00,49.1,33.6,28.97,NNW,330,4.1,6.5,55,0.00,,,0.05,WSDL version 420,2013-02-13 04:56:00,
2013-02-12 23:01:00,48.8,33.4,29.00,NW,325,4.0,6.5,55,0.00,,,0.05,WSDL version 420,2013-02-13 05:01:00,
2013-02-12 23:12:00,48.5,32.5,29.00,NW,313,4.4,6.3,53,0.00,,,0.05,WSDL version 420,2013-02-13 05:12:00,
2013-02-12 23:17:00,48.1,31.8,29.00,NW,318,3.7,6.3,53,0.00,,,0.05,WSDL version 420,2013-02-13 05:17:00,
2013-02-12 23:27:00,47.6,31.3,29.00,NW,321,4.3,6.3,53,0.00,,,0.05,WSDL version 420,2013-02-13 05:27:00,
2013-02-12 23:37:00,47.2,30.9,29.00,NW,323,3.7,7.4,53,0.00,,,0.05,WSDL version 420,2013-02-13 05:37:00,
2013-02-12 23:48:00,46.4,30.0,29.03,NW,320,3.7,7.4,53,0.00,,,0.05,WSDL version 420,2013-02-13 05:48:00,
2013-02-12 23:58:00,45.9,29.8,29.00,NW,325,2.7,4.7,53,0.00,,,0.05,WSDL version 420,2013-02-13 05:58:00,